Погода в Ломовом

Россия / Архангельская область     64˚00′27″N   40˚39′28″E
темп.,
°C
ветер,
м/с
пор.,
м/с
влажн.,
%
обл.,
%
осадки,
мм/ч
давл.,
гПа
погр.,
м
16 января, сб
сб1600:00−26˚сз12970 0.0 101919
03:00−25˚ююз12997 0.0 102019
06:00−24˚зсз129985 0.0 101920
09:00−24˚ю1110059 0.0 101920
12:00−22˚з119978 0.0 101820
15:00−22˚сз1110084 0.1 101720
18:00−22˚з0010099 0.0 101620
21:00−22˚з11100100 0.1 101520
17 января, вс
вс1700:00−21˚зюз11100100 0.0 101320
03:00−21˚зюз1210099 0.1 101220
06:00−20˚юз2310096 0.0 101062
09:00−18˚зюз369697 0.1 1009195
12:00−15˚зюз3795100 0.4 1008214
15:00−13˚зюз389599 0.5 1007227
18:00−10˚зюз3895100 0.1 1006259
21:00−9˚з3795100 0.4 1006255
18 января, пн
пн1800:00−9˚зсз259698 0.4 1006188
03:00−10˚сз229799 0.6 100841
06:00−12˚св2298100 0.1 100946
09:00−17˚всв2498100 0.1 101198
12:00−18˚в2497100 0.0 1012120
15:00−18˚вюв2297100 0.0 101366
18:00−18˚юв2298100 0.0 101376
21:00−17˚ююв3697100 0.0 1013155
19 января, вт
вт1900:00−16˚ю379797 0.0 1012179
03:00−14˚ю379698 0.1 1011223
06:00−13˚ю3795100 0.3 1010244
09:00−12˚ю3795100 0.9 1009264
12:00−11˚ююз3795100 0.7 1009310
15:00−10˚ююз3895100 1.1 1008346
18:00−9˚ююз3895100 0.6 1007391
21:00−10˚ююз3795100 1.1 1006335
20 января, ср
ср2000:00−10˚юз3795100 0.7 1006336
03:00−11˚юз2796100 1.1 1005249
06:00−12˚зюз269697 0.3 1005201
09:00−13˚з279697 0.3 1005202
12:00−15˚з249779 0.0 1006118
15:00−15˚з229788 0.1 100636
18:00−16˚з229899 0.1 100720
21:00−16˚зсз1298100 0.1 100720